Location: *
(51.8167°N, 12.5000°E)
Time: 22:50:49
(UTC+00:00)

Cosmos 1140 Rocket - Pass Details

Date: 16 September 2019
Orbit: 745 x 767 km, 74.1° (Epoch: 19 October)

Event Time Altitude Azimuth Distance (km) Brightness Sun altitude
Rises 18:15:44 0° 338° (NNW) 3,232 7.3 -8.8°
Reaches altitude 10° 18:18:23 10° 349° (N) 2,299 6.4 -9.2°
Maximum altitude 18:23:00 31° 51° (NE) 1,314 4.4 -9.9°
Enters shadow 18:26:46 14° 108° (ESE) 2,021 5.0 -10.4°
